CW2927 Weather Reports


Display with metric or nautical units.
time (UTC)temp
F
wind
direction
speed
MPH
gust
MPH
rain 1hr
in
rain 24hr
in
rain mn
in
humidity
%
barometer
mb
20260901184705 74 5 2.0 5.0 0.00 0.00 0.00 54 1016.6
20260901184205 74 40 3.0 10.0 0.00 0.00 0.00 53 1016.6
20260901182704 74 36 3.0 7.0 0.00 0.00 0.00 52 1016.5
20260901182204 74 52 3.0 10.0 0.00 0.00 0.00 53 1016.5
20260901180704 74 74 4.0 8.0 0.00 0.00 0.00 55 1016.3
20260901174705 73 89 5.0 10.0 0.00 0.00 0.00 55 1016.7
20260901174204 73 65 3.0 10.0 0.00 0.00 0.00 57 1016.7
20260901172704 73 56 4.0 9.0 0.00 0.00 0.00 58 1016.7
20260901172204 73 94 2.0 8.0 0.00 0.00 0.00 57 1016.8
20260901170705 73 116 3.0 7.0 0.00 0.00 0.00 55 1016.9
20260901170204 73 76 5.0 8.0 0.00 0.00 0.00 53 1017.0
20260901164205 72 109 4.0 9.0 0.00 0.00 0.00 54 1017.1
20260901162704 72 38 5.0 12.0 0.00 0.00 0.00 54 1017.2
20260901162205 71 59 3.0 12.0 0.00 0.00 0.00 55 1017.2
20260901160704 71 20 4.0 8.0 0.00 0.00 0.00 58 1017.2
20260901160204 71 57 5.0 8.0 0.00 0.00 0.00 57 1017.4
20260901154704 72 125 2.0 7.0 0.00 0.00 0.00 61 1017.4
20260901154204 72 65 3.0 8.0 0.00 0.00 0.00 58 1017.5
20260901152704 71 80 3.0 7.0 0.00 0.00 0.00 63 1017.5
20260901152205 70 53 2.0 7.0 0.00 0.00 0.00 63 1017.6
20260901150704 69 46 3.0 8.0 0.00 0.00 0.00 63 1017.7
20260901150204 69 75 3.0 9.0 0.00 0.00 0.00 66 1017.6
20260901144704 68 75 3.0 7.0 0.00 0.00 0.00 67 1017.5
20260901144204 68 45 3.0 7.0 0.00 0.00 0.00 68 1017.5
20260901142704 67 80 5.0 8.0 0.00 0.00 0.00 69 1017.6
20260901142204 67 86 3.0 9.0 0.00 0.00 0.00 69 1017.6
20260901140704 66 77 3.0 7.0 0.00 0.00 0.00 70 1017.6
20260901140204 66 75 4.0 8.0 0.00 0.00 0.00 70 1017.5
20260901134704 65 41 3.0 6.0 0.00 0.00 0.00 73 1017.6
20260901134204 64 77 4.0 9.0 0.00 0.00 0.00 73 1017.7
20260901132705 63 58 4.0 8.0 0.00 0.00 0.00 76 1017.8
20260901132204 62 53 2.0 6.0 0.00 0.00 0.00 78 1017.9
20260901130704 60 65 3.0 6.0 0.00 0.00 0.00 81 1018.0
20260901130204 59 38 3.0 6.0 0.00 0.00 0.00 80 1017.9
20260901124704 58 53 1.0 3.0 0.00 0.00 0.00 83 1017.9
20260901124204 58 51 3.0 5.0 0.00 0.00 0.00 83 1017.9
20260901122704 59 43 2.0 3.0 0.00 0.00 0.00 83 1017.9
20260901122204 58 48 2.0 5.0 0.00 0.00 0.00 84 1017.9
20260901120703 58 65 1.0 3.0 0.00 0.00 0.00 86 1018.1
20260901114704 56 65 1.0 3.0 0.00 0.00 0.00 87 1018.1
20260901114203 56 65 2.0 3.0 0.00 0.00 0.00 88 1018.1
20260901112704 55 65 0.0 2.0 0.00 0.00 0.00 91 1018.2
20260901112204 55 65 1.0 2.0 0.00 0.00 0.00 91 1018.2
20260901110704 54 65 0.0 0.0 0.00 0.00 0.00 91 1017.9
20260901110203 54 65 1.0 2.0 0.00 0.00 0.00 91 1017.8
20260901104704 53 65 1.0 2.0 0.00 0.01 0.00 91 1017.4
20260901102703 53 71 3.0 5.0 0.00 0.01 0.00 91 1017.5
20260901100704 53 70 1.0 3.0 0.00 0.01 0.00 91 1017.4
20260901100204 53 67 1.0 3.0 0.00 0.01 0.00 92 1017.3
20260901094704 53 67 2.0 3.0 0.00 0.01 0.00 92 1017.2
20260901094204 53 66 2.0 5.0 0.00 0.01 0.00 92 1017.2
20260901092704 52 114 2.0 3.0 0.00 0.01 0.00 92 1017.2
20260901092204 52 114 1.0 3.0 0.00 0.01 0.00 92 1017.1
20260901090704 52 114 1.0 3.0 0.00 0.01 0.00 91 1017.2
20260901084703 52 115 0.0 1.0 0.00 0.01 0.00 91 1017.5
20260901082703 53 115 0.0 0.0 0.00 0.01 0.00 90 1017.2
20260901082204 53 115 0.0 2.0 0.00 0.01 0.00 90 1017.2
20260901080703 53 115 0.0 1.0 0.00 0.01 0.00 91 1017.1
20260901080204 53 115 0.0 3.0 0.00 0.01 0.00 91 1017.1
20260901074705 53 115 2.0 3.0 0.00 0.01 0.00 92 1017.1
20260901074205 53 115 2.0 3.0 0.00 0.01 0.00 91 1017.1
20260901072705 53 115 0.0 0.0 0.00 0.01 0.00 91 1017.4
20260901072205 53 115 0.0 2.0 0.00 0.01 0.00 91 1017.4
20260901070706 53 115 0.0 1.0 0.00 0.01 0.00 91 1017.5
20260901064205 54 115 1.0 2.0 0.00 0.01 0.00 91 1017.7
20260901062205 54 115 1.0 1.0 0.00 0.01 0.00 90 1017.6
20260901060705 54 115 1.0 2.0 0.00 0.01 0.00 90 1017.5
20260901060205 54 115 1.0 2.0 0.00 0.01 0.00 89 1017.6
20260901054705 55 115 1.0 2.0 0.00 0.01 0.00 90 1017.7
20260901054205 55 115 1.0 2.0 0.00 0.01 0.00 89 1017.7
20260901052205 55 115 1.0 2.0 0.00 0.01 0.00 89 1017.6
20260901050705 55 115 1.0 2.0 0.00 0.01 0.00 89 1017.7
20260901050206 55 115 1.0 3.0 0.00 0.01 0.00 89 1017.7
20260901044705 56 111 2.0 3.0 0.00 0.01 0.00 88 1017.7
20260901044205 56 84 0.0 1.0 0.00 0.01 0.00 88 1017.7
20260901042205 57 84 0.0 1.0 0.00 0.01 0.00 87 1017.4
20260901040705 58 84 1.0 2.0 0.00 0.01 0.00 86 1017.2
20260901034705 59 84 1.0 2.0 0.00 0.01 0.01 84 1017.1
20260901034205 59 84 0.0 1.0 0.00 0.01 0.01 83 1017.2
20260901032705 60 84 0.0 1.0 0.00 0.01 0.01 83 1017.1
20260901032205 60 84 1.0 5.0 0.00 0.01 0.01 83 1017.0
20260901030704 60 95 1.0 3.0 0.00 0.01 0.01 87 1017.1
20260901030204 60 95 1.0 2.0 0.00 0.01 0.01 86 1017.1
20260901024705 61 95 0.0 0.0 0.00 0.01 0.01 85 1017.1
20260901022705 62 95 0.0 2.0 0.00 0.01 0.01 84 1017.1
20260901022205 62 95 1.0 5.0 0.00 0.01 0.01 84 1017.1
20260901020705 61 103 1.0 2.0 0.00 0.01 0.01 84 1017.2
20260901020205 61 103 0.0 2.0 0.00 0.01 0.01 83 1017.2
20260901014705 62 103 1.0 3.0 0.00 0.01 0.01 83 1017.3
20260901012705 62 104 0.0 1.0 0.00 0.01 0.01 84 1017.4
20260901012205 62 104 1.0 3.0 0.00 0.01 0.01 84 1017.4
20260901010705 62 113 2.0 3.0 0.00 0.01 0.01 82 1017.4
20260901010204 62 191 1.0 3.0 0.00 0.01 0.01 81 1017.4
20260901004704 62 191 1.0 3.0 0.00 0.01 0.01 80 1017.3
20260901004206 62 191 1.0 2.0 0.00 0.01 0.01 80 1017.3
20260901002704 62 193 1.0 1.0 0.00 0.01 0.01 79 1017.3
20260901002204 63 193 0.0 0.0 0.00 0.01 0.01 79 1017.1
20260901000704 64 193 0.0 0.0 0.00 0.01 0.01 76 1016.9
20260901000204 64 193 1.0 2.0 0.00 0.01 0.01 76 1017.0
20260831234705 65 193 0.0 0.0 0.00 0.01 0.01 73 1016.9
20260831234205 66 193 0.0 0.0 0.00 0.01 0.01 72 1017.0
20260831232705 67 193 0.0 0.0 0.00 0.01 0.01 69 1017.0
20260831232205 68 193 0.0 0.0 0.00 0.01 0.01 68 1017.0
20260831230705 69 193 0.0 0.0 0.00 0.01 0.01 63 1017.0
20260831224705 70 192 0.0 1.0 0.00 0.01 0.01 61 1017.1
20260831224205 70 192 2.0 3.0 0.00 0.01 0.01 61 1017.2
20260831222704 72 195 0.0 3.0 0.00 0.01 0.01 59 1017.3
20260831222205 72 202 2.0 3.0 0.00 0.01 0.01 58 1017.3
20260831220705 73 173 1.0 3.0 0.00 0.01 0.01 55 1017.4
20260831220204 73 173 2.0 3.0 0.00 0.01 0.01 55 1017.4
20260831212705 73 0 2.0 3.0 0.00 0.18 0.01 56 1017.5
20260831212205 73 273 2.0 7.0 0.00 0.18 0.01 55 1017.5
20260831210705 73 266 3.0 5.0 0.00 0.18 0.01 55 1017.6
20260831204204 73 286 2.0 6.0 0.00 0.18 0.01 55 1017.7
20260831202704 73 271 3.0 6.0 0.00 0.18 0.01 54 1017.7
20260831202205 73 263 3.0 6.0 0.00 0.18 0.01 54 1017.8
20260831200704 73 285 2.0 5.0 0.00 0.18 0.01 53 1017.9
20260831200205 73 284 3.0 7.0 0.00 0.18 0.01 54 1017.9
20260831194704 73 294 3.0 6.0 0.00 0.18 0.01 53 1018.0
20260831194204 73 300 2.0 7.0 0.00 0.18 0.01 53 1018.1
20260831192204 73 265 3.0 5.0 0.00 0.18 0.01 57 1018.0
20260831190704 73 161 2.0 3.0 0.00 0.19 0.01 57 1018.2